{"data":{"norad_id":66142,"epoch":"2026-09-20T03:31:56.401248Z","epoch_age_seconds":52449,"freshness":"FRESH","line1":"1 66142U 25238A   26263.14718057  .00000019  00000+0  00000+0 0  9999","line2":"2 66142   5.2656 299.2240 0003248 237.1732 298.0111  1.00271159  3286","mean_motion":1.00271159,"eccentricity":0.0003248,"inclination_deg":5.2656,"raan_deg":299.224,"arg_perigee_deg":237.1732,"mean_anomaly_deg":298.0111,"bstar":0,"rev_number":328,"period_min":1436.1058696848,"perigee_km":35773.075290688,"apogee_km":35800.465614569,"semimajor_km":42164.907452628,"source":"CELESTRAK","updated_at":"2026-09-20T09:00:35.346318Z"}}